Location: ???? ??????? ????
(31.2176°N, 31.6797°E)
Time: 12:04:58
(UTC+00:00)

OAO 3 Rocket - Pass Details

Date: 29 October 2020
Orbit: 629 x 682 km, 35.0° (Epoch: 27 November)

Event Time Altitude Azimuth Distance (km) Brightness Sun altitude
Rises 16:55:13 0° 282° (WNW) 2,972 7.9 -23.7°
Reaches altitude 10° 16:57:47 10° 273° (W) 2,049 6.8 -24.2°
Maximum altitude 17:02:02 33° 210° (SSW) 1,088 4.5 -25.1°
Enters shadow 17:03:11 29° 182° (S) 1,181 4.5 -25.4°
